This is the latest recevied weather packets stored in our database for station/object K0QJ. If no packets are shown the sender has not sent any weather packets the latest 10 day(s).
| Time | Temp. | Humidity | Pressure | Rain* | Wind** | Luminosity | Snow |
|---|---|---|---|---|---|---|---|
| 1778110014 | 15° C | 35% | 1016 hPa | 0 mm | - | 29 W/m² | - |
| 1778109709 | 15° C | 35% | 1015.9 hPa | 0 mm | - | 28 W/m² | - |
| 1778109407 | 15° C | 35% | 1015.6 hPa | 0 mm | - | 29 W/m² | - |
| 1778109105 | 15° C | 35% | 1015.7 hPa | 0 mm | - | 30 W/m² | - |
| 1778108802 | 15.56° C | 34% | 1015.6 hPa | 0 mm | - | 29 W/m² | - |
| 1778108498 | 15° C | 36% | 1015.6 hPa | 0 mm | - | 32 W/m² | - |
| 1778108195 | 15° C | 36% | 1015.7 hPa | 0 mm | - | 33 W/m² | - |
| 1778107892 | 15° C | 35% | 1015.7 hPa | 0 mm | - | 33 W/m² | - |
| 1778107588 | 15.56° C | 36% | 1015.6 hPa | 0 mm | - | 46 W/m² | - |
| 1778107285 | 15.56° C | 35% | 1015.7 hPa | 0 mm | - | 35 W/m² | - |
| 1778106981 | 15.56° C | 36% | 1016 hPa | 0 mm | - | 38 W/m² | - |
| 1778106677 | 15° C | 35% | 1015.9 hPa | 0 mm | - | 35 W/m² | - |
| 1778106375 | 15° C | 36% | 1016 hPa | 0 mm | - | 35 W/m² | - |
| 1778106071 | 15° C | 38% | 1015.9 hPa | 0 mm | - | 37 W/m² | - |
| 1778105769 | 15.56° C | 37% | 1015.7 hPa | 0 mm | - | 38 W/m² | - |
| 1778105466 | 15.56° C | 37% | 1016 hPa | 0 mm | - | 45 W/m² | - |
| 1778105162 | 15.56° C | 36% | 1016.1 hPa | 0 mm | - | 39 W/m² | - |
| 1778104858 | 15.56° C | 37% | 1016 hPa | 0 mm | - | 39 W/m² | - |
| 1778104555 | 15.56° C | 37% | 1016.2 hPa | 0 mm | - | 51 W/m² | - |
| 1778104250 | 15.56° C | 36% | 1015.7 hPa | 0 mm | - | 40 W/m² | - |
| 1778103947 | 15.56° C | 38% | 1016.2 hPa | 0 mm | - | 41 W/m² | - |
| 1778103645 | 15.56° C | 37% | 1016.2 hPa | 0 mm | - | 40 W/m² | - |
| 1778103343 | 15.56° C | 37% | 1016 hPa | 0 mm | - | 42 W/m² | - |
| 1778103040 | 15° C | 38% | 1016.2 hPa | 0 mm | - | 42 W/m² | - |
| 1778102736 | 15.56° C | 34% | 1016.2 hPa | 0 mm | - | 60 W/m² | - |
* Rain latest hour (hover to see other rain measurements)
** Current wind speed in m/s (hover to see current wind gust speed)